Weather History for Waukegan, IL

Change the Weather History Date:

Monday, September 2, 2013

  Actual Average Record
Temperature  
Mean Temperature 64 °F -  
Max Temperature 72 °F 77 °F 91 °F (2011)
Min Temperature 56 °F 58 °F 46 °F (2001)
Degree Days  
Heating Degree Days 1 1  
Month to date heating degree days 1 2  
Since 1 July heating degree days 40 30  
Cooling Degree Days 0 4  
Month to date cooling degree days 7 8  
Year to date cooling degree days 497 510  
Growing Degree Days 14 (Base 50)    
Moisture  
Dew Point 59 °F    
Average Humidity 80    
Maximum Humidity 93    
Minimum Humidity 66    
Precipitation  
Precipitation 0.00 in 0.08 in 1.21 in (2002)
Month to date precipitation 0.04 0.17  
Year to date precipitation 21.88 24.62  
Sea Level Pressure  
Sea Level Pressure 29.90 in    
Wind  
Wind Speed 6 mph (NNW)    
Max Wind Speed 13 mph    
Max Gust Speed 18 mph    
Visibility 10 miles    
Events      
T = Trace of Precipitation, MM = Missing Value Source: NWS Daily Summary

Daily Weather History Graph

Daily Weather History Graph

Search for Another Location

Airport:

Trip Planner

Search our weather history database for the weather conditions in past years. The results will help you decide how hot, cold, wet, or windy it might be!

Date:

Astronomy

Sep. 02, 2013 Rise Set
Actual Time 6:17 AM CDT 7:23 PM CDT
Civil Twilight 5:49 AM CDT 7:52 PM CDT
Nautical Twilight 5:14 AM CDT 8:26 PM CDT
Astronomical Twilight 4:38 AM CDT 9:02 PM CDT
Moon 3:32 AM CDT (9/2) 5:38 PM CDT (9/2)
Length of Visible Light 14h 03m
Length of Day
13h 05m
Waning Crescent, 8% of the Moon is Illuminated
Sep 2
Waning Crescent
Sep 5
New
Sep 12
First Quarter
Sep 19
Full
Sep 26
Last Quarter

Hourly Weather History & Observations

Time (CDT) Temp. Dew Point Humidity Pressure Visibility Wind Dir Wind Speed Gust Speed Precip Events Conditions
12:52 AM 66.9 °F 61.0 °F 81% 29.78 in 10.0 mi NW 5.8 mph - N/A   Clear
1:52 AM 66.0 °F 61.0 °F 84% 29.78 in 10.0 mi NW 4.6 mph - N/A   Clear
2:52 AM 64.9 °F 60.1 °F 84% 29.79 in 10.0 mi NNW 3.5 mph - N/A   Clear
3:52 AM 64.0 °F 60.1 °F 87% 29.80 in 10.0 mi NNW 4.6 mph - N/A   Clear
4:52 AM 63.0 °F 60.1 °F 90% 29.82 in 10.0 mi NW 4.6 mph - N/A   Clear
5:22 AM 62.6 °F 60.8 °F 94% 29.86 in 10.0 mi NW 6.9 mph - N/A   Mostly Cloudy
5:41 AM 62.6 °F 60.8 °F 94% 29.86 in 10.0 mi NW 5.8 mph - N/A   Scattered Clouds
5:52 AM 62.1 °F 59.0 °F 90% 29.84 in 10.0 mi NW 4.6 mph - N/A   Partly Cloudy
6:52 AM 62.1 °F 60.1 °F 93% 29.87 in 10.0 mi NW 5.8 mph - N/A   Clear
7:52 AM 66.0 °F 62.1 °F 87% 29.88 in 10.0 mi NW 4.6 mph - N/A   Partly Cloudy
8:52 AM 70.0 °F 63.0 °F 78% 29.89 in 10.0 mi NW 5.8 mph - N/A   Partly Cloudy
9:52 AM 70.0 °F 62.1 °F 76% 29.91 in 10.0 mi NNW 5.8 mph - N/A   Overcast
10:15 AM 69.8 °F 62.6 °F 78% 29.93 in 10.0 mi Variable 3.5 mph - N/A   Overcast
10:49 AM 71.6 °F 62.6 °F 73% 29.94 in 10.0 mi NW 6.9 mph - N/A   Overcast
10:52 AM 71.1 °F 62.1 °F 73% 29.92 in 10.0 mi NNW 5.8 mph - N/A   Overcast
11:21 AM 71.6 °F 62.6 °F 73% 29.94 in 10.0 mi NE 5.8 mph - N/A   Mostly Cloudy
11:52 AM 71.1 °F 62.1 °F 73% 29.91 in 10.0 mi NE 8.1 mph - N/A   Overcast
12:52 PM 70.0 °F 61.0 °F 73% 29.92 in 10.0 mi NNE 8.1 mph - N/A   Overcast
1:25 PM 69.8 °F 60.8 °F 73% 29.94 in 10.0 mi NNE 10.4 mph - N/A   Mostly Cloudy
1:52 PM 71.1 °F 59.0 °F 66% 29.92 in 10.0 mi NE 11.5 mph - N/A   Mostly Cloudy
2:52 PM 69.1 °F 59.0 °F 70% 29.92 in 10.0 mi NNE 10.4 mph - N/A   Scattered Clouds
3:52 PM 69.1 °F 57.9 °F 68% 29.92 in 10.0 mi NNE 8.1 mph - N/A   Mostly Cloudy
4:52 PM 68.0 °F 57.9 °F 70% 29.92 in 10.0 mi NE 10.4 mph 18.4 mph N/A   Mostly Cloudy
5:52 PM 66.9 °F 57.0 °F 70% 29.93 in 10.0 mi NNE 10.4 mph - N/A   Mostly Cloudy
6:52 PM 66.0 °F 55.9 °F 70% 29.94 in 10.0 mi NNE 6.9 mph - N/A   Overcast
7:52 PM 64.0 °F 55.9 °F 75% 29.95 in 10.0 mi North 4.6 mph - N/A   Overcast
8:52 PM 60.1 °F 55.0 °F 83% 29.96 in 10.0 mi Calm Calm - N/A   Clear
9:52 PM 57.9 °F 54.0 °F 87% 29.97 in 10.0 mi NNW 3.5 mph - N/A   Clear
10:52 PM 59.0 °F 52.0 °F 78% 29.97 in 10.0 mi NNW 3.5 mph - N/A   Clear
11:52 PM 57.9 °F 52.0 °F 81% 29.97 in 10.0 mi NW 4.6 mph - N/A   Clear